TimeCST,TemperatureF,Dew PointF,Humidity,Sea Level PressureIn,VisibilityMPH,Wind Direction,Wind SpeedMPH,Gust SpeedMPH,PrecipitationIn,Events,Conditions,WindDirDegrees,DateUTC
12:00 AM,15.8,15.8,100,30.19,10.0,NNW,19.6,26.5,N/A,,Overcast,330,2013-01-03 06:00:00
12:20 AM,14.0,12.2,93,30.20,10.0,NNW,21.9,26.5,N/A,,Scattered Clouds,330,2013-01-03 06:20:00
12:40 AM,10.4,10.4,100,30.21,10.0,NNW,18.4,25.3,N/A,,Clear,330,2013-01-03 06:40:00
1:00 AM,10.4,8.6,92,30.21,10.0,NNW,16.1,-,N/A,,Clear,330,2013-01-03 07:00:00
1:40 AM,8.6,8.6,100,30.21,10.0,NW,16.1,-,N/A,,Clear,320,2013-01-03 07:40:00
2:00 AM,8.6,8.6,100,30.22,10.0,NW,18.4,-,N/A,,Scattered Clouds,320,2013-01-03 08:00:00
2:20 AM,6.8,6.8,100,30.22,10.0,NW,13.8,-,N/A,,Scattered Clouds,320,2013-01-03 08:20:00
2:40 AM,6.8,6.8,100,30.23,10.0,NNW,18.4,-,N/A,,Clear,330,2013-01-03 08:40:00
3:00 AM,6.8,6.8,100,30.24,10.0,NNW,16.1,-,N/A,,Clear,330,2013-01-03 09:00:00
3:20 AM,6.8,6.8,100,30.24,10.0,NNW,17.3,-,N/A,,Partly Cloudy,330,2013-01-03 09:20:00
3:40 AM,6.8,6.8,100,30.24,10.0,NW,16.1,-,N/A,,Partly Cloudy,320,2013-01-03 09:40:00
4:00 AM,6.8,6.8,100,30.23,10.0,NW,17.3,-,N/A,,Mostly Cloudy,320,2013-01-03 10:00:00
4:20 AM,6.8,6.8,100,30.23,10.0,NW,18.4,-,N/A,,Partly Cloudy,320,2013-01-03 10:20:00
4:40 AM,6.8,6.8,100,30.23,10.0,NNW,18.4,-,N/A,,Clear,330,2013-01-03 10:40:00
5:00 AM,5.0,5.0,100,30.24,10.0,NNW,17.3,-,N/A,,Clear,330,2013-01-03 11:00:00
5:20 AM,5.0,5.0,100,30.25,10.0,NNW,17.3,-,N/A,,Clear,330,2013-01-03 11:20:00
5:40 AM,5.0,5.0,100,30.26,10.0,NW,19.6,-,N/A,,Clear,320,2013-01-03 11:40:00
6:00 AM,5.0,5.0,100,30.26,10.0,NNW,18.4,-,N/A,,Clear,330,2013-01-03 12:00:00
6:20 AM,5.0,5.0,100,30.26,10.0,NNW,15.0,-,N/A,,Clear,330,2013-01-03 12:20:00
6:40 AM,6.8,6.8,100,30.27,10.0,NNW,16.1,-,N/A,,Scattered Clouds,330,2013-01-03 12:40:00
7:00 AM,8.6,8.6,100,30.27,10.0,NNW,13.8,-,N/A,Snow,Light Snow,340,2013-01-03 13:00:00
7:20 AM,8.6,8.6,100,30.27,10.0,NNW,9.2,-,N/A,Snow,Light Snow,330,2013-01-03 13:20:00
7:40 AM,10.4,10.4,100,30.27,10.0,NW,10.4,-,N/A,,Overcast,320,2013-01-03 13:40:00
8:00 AM,10.4,10.4,100,30.27,10.0,NW,10.4,-,N/A,Snow,Light Snow,320,2013-01-03 14:00:00
8:20 AM,10.4,10.4,100,30.28,10.0,NW,9.2,-,N/A,Snow,Light Snow,320,2013-01-03 14:20:00
8:40 AM,12.2,12.2,100,30.28,10.0,NW,9.2,-,N/A,Snow,Light Snow,310,2013-01-03 14:40:00
9:00 AM,12.2,12.2,100,30.27,10.0,WNW,8.1,-,0.02,Snow,Light Snow,300,2013-01-03 15:00:00
9:20 AM,14.0,14.0,100,30.28,10.0,NNW,16.1,-,0.01,Snow,Light Snow,330,2013-01-03 15:20:00
9:40 AM,14.0,14.0,100,30.29,10.0,NW,13.8,-,0.03,Snow,Light Snow,320,2013-01-03 15:40:00
10:00 AM,14.0,14.0,100,30.30,10.0,NNW,15.0,21.9,0.04,Snow,Light Snow,330,2013-01-03 16:00:00
10:20 AM,15.8,15.8,100,30.30,10.0,NW,10.4,-,0.01,Snow,Light Snow,320,2013-01-03 16:20:00
10:40 AM,15.8,15.8,100,30.30,10.0,NW,10.4,-,0.01,Snow,Light Snow,310,2013-01-03 16:40:00
11:00 AM,15.8,15.8,100,30.30,10.0,WNW,6.9,-,0.01,,Mostly Cloudy,300,2013-01-03 17:00:00
11:20 AM,15.8,15.8,100,30.28,10.0,West,8.1,-,N/A,Snow,Light Snow,280,2013-01-03 17:20:00
11:40 AM,15.8,15.8,100,30.26,10.0,WSW,9.2,-,N/A,Snow,Light Snow,250,2013-01-03 17:40:00
12:00 PM,15.8,15.8,100,30.25,10.0,WSW,11.5,-,N/A,,Overcast,250,2013-01-03 18:00:00
12:20 PM,15.8,15.8,100,30.25,10.0,WSW,10.4,-,N/A,,Overcast,250,2013-01-03 18:20:00
12:40 PM,15.8,15.8,100,30.24,10.0,WSW,13.8,-,N/A,,Overcast,240,2013-01-03 18:40:00
1:00 PM,15.8,15.8,100,30.23,10.0,SW,13.8,-,N/A,,Mostly Cloudy,230,2013-01-03 19:00:00
1:20 PM,17.6,17.6,100,30.22,10.0,SW,13.8,17.3,N/A,,Mostly Cloudy,230,2013-01-03 19:20:00
1:40 PM,17.6,17.6,100,30.22,10.0,WSW,12.7,18.4,N/A,,Overcast,240,2013-01-03 19:40:00
2:00 PM,17.6,17.6,100,30.22,10.0,WSW,12.7,18.4,N/A,,Overcast,250,2013-01-03 20:00:00
2:20 PM,17.6,17.6,100,30.22,10.0,WSW,11.5,-,N/A,,Overcast,250,2013-01-03 20:20:00
2:40 PM,19.4,19.4,100,30.22,10.0,WSW,11.5,-,N/A,,Scattered Clouds,250,2013-01-03 20:40:00
3:00 PM,19.4,19.4,100,30.22,10.0,WSW,11.5,-,N/A,,Scattered Clouds,250,2013-01-03 21:00:00
3:20 PM,19.4,19.4,100,30.23,10.0,West,12.7,-,N/A,,Mostly Cloudy,260,2013-01-03 21:20:00
3:40 PM,19.4,19.4,100,30.23,10.0,West,9.2,-,N/A,,Overcast,270,2013-01-03 21:40:00
4:00 PM,19.4,19.4,100,30.22,10.0,WSW,8.1,-,N/A,,Overcast,250,2013-01-03 22:00:00
4:20 PM,19.4,19.4,100,30.21,10.0,WSW,9.2,-,N/A,,Partly Cloudy,250,2013-01-03 22:20:00
4:40 PM,19.4,19.4,100,30.21,10.0,WSW,9.2,-,N/A,,Clear,250,2013-01-03 22:40:00
5:00 PM,17.6,17.6,100,30.20,10.0,WSW,9.2,-,N/A,,Clear,240,2013-01-03 23:00:00
5:20 PM,17.6,17.6,100,30.21,10.0,WSW,9.2,-,N/A,,Clear,250,2013-01-03 23:20:00
5:40 PM,17.6,17.6,100,30.20,10.0,WSW,9.2,-,N/A,,Clear,240,2013-01-03 23:40:00
6:00 PM,15.8,15.8,100,30.20,10.0,WSW,10.4,-,N/A,,Clear,240,2013-01-04 00:00:00
6:20 PM,15.8,15.8,100,30.21,10.0,WSW,10.4,-,N/A,,Clear,240,2013-01-04 00:20:00
6:40 PM,15.8,15.8,100,30.20,10.0,SW,12.7,-,N/A,,Clear,230,2013-01-04 00:40:00
7:00 PM,15.8,15.8,100,30.19,10.0,WSW,12.7,-,N/A,,Clear,240,2013-01-04 01:00:00
7:20 PM,15.8,15.8,100,30.19,10.0,SW,12.7,-,N/A,,Clear,230,2013-01-04 01:20:00
7:40 PM,15.8,15.8,100,30.18,10.0,SW,12.7,18.4,N/A,,Clear,230,2013-01-04 01:40:00
8:00 PM,15.8,15.8,100,30.17,10.0,WSW,15.0,-,N/A,,Clear,240,2013-01-04 02:00:00
8:20 PM,15.8,15.8,100,30.17,10.0,WSW,16.1,-,N/A,,Clear,240,2013-01-04 02:20:00
8:40 PM,15.8,15.8,100,30.16,10.0,SW,16.1,23.0,N/A,,Clear,230,2013-01-04 02:40:00
9:00 PM,17.6,17.6,100,30.14,10.0,SW,15.0,-,N/A,,Clear,230,2013-01-04 03:00:00
9:20 PM,17.6,17.6,100,30.14,10.0,WSW,16.1,21.9,N/A,,Clear,240,2013-01-04 03:20:00
9:40 PM,17.6,17.6,100,30.13,10.0,WSW,12.7,-,N/A,,Clear,240,2013-01-04 03:40:00
10:00 PM,17.6,17.6,100,30.13,10.0,WSW,12.7,-,N/A,,Clear,240,2013-01-04 04:00:00
10:20 PM,17.6,17.6,100,30.12,10.0,WSW,13.8,-,N/A,,Clear,240,2013-01-04 04:20:00
10:40 PM,17.6,17.6,100,30.12,10.0,WSW,17.3,23.0,N/A,,Clear,250,2013-01-04 04:40:00
11:00 PM,17.6,17.6,100,30.12,10.0,WSW,16.1,23.0,N/A,,Clear,240,2013-01-04 05:00:00
11:20 PM,19.4,17.6,93,30.12,10.0,WSW,15.0,21.9,N/A,,Clear,240,2013-01-04 05:20:00
11:40 PM,17.6,17.6,100,30.11,10.0,WSW,15.0,21.9,N/A,,Clear,250,2013-01-04 05:40:00